Regional Weather Roundup
Issued by NWS Bismarck, ND

Home | Current Version | Previous Version | Text Only | Print | Product List | Glossary On
Versions: 1 2 3 4 5 6 7 8 9 10 11 12 13 14 15 16 17 18 19 20 21 22 23 24 25 26 27 28 29 30 31 32 33 34 35 36 37 38 39 40 41 42 43 44 45 46 47 48 49 50
938
ASUS43 KBIS 272202
RWRBIS

NWR BROADCAST TEXT
NATIONAL WEATHER SERVICE BISMARCK ND
500 PM CDT SAT AUG 27 2016

NOTE: "FAIR" INDICATES FEW OR NO CLOUDS BELOW 12,000 FEET WITH NO
SIGNIFICANT WEATHER AND/OR OBSTRUCTIONS TO VISIBILITY.


CITY           SKY/WX    TMP DP  RH WIND       PRES   REMARKS
WILLISTON      SUNNY     82  43  25 S9        29.81F
MINOT          MOSUNNY   79  45  29 S10       29.84F
MINOT AFB      SUNNY     78  44  29 VRB6      29.83F
BISMARCK       SUNNY     80  50  34 VRB7      29.88F
DICKINSON      MOSUNNY   78  40  25 S18G25    29.85F
GARRISON         N/A     79  48  33 S9        29.86F
HETTINGER ARPT MOSUNNY   79  44  28 S13G20    29.90F
JAMESTOWN      CLOUDY    77  59  53 S9        29.88F
CARRINGTON     FAIR      77  52  41 VRB6      29.91S
HAZEN          FAIR      79  41  25 S5        29.87F
OAKES            N/A    N/A N/A N/A MISG        N/A
STANLEY        FAIR      75  45  33 SW7G15    29.88F
$$

CITY           SKY/WX    TMP DP  RH WIND       PRES   REMARKS
GRAND FORKS    LGT RAIN  66  61  84 S12       29.89F
GRAND FORKS AF CLOUDY    64  60  87 SE15      29.89S
DEVILS LAKE    NOT AVBL
FARGO          SUNNY     74  58  57 SE12      29.90F
CAVALIER       FAIR      66  61  82 E10       29.90F
GRAFTON        TSTM      59  59 100 S8        29.94R
GWINNER        FAIR      75  63  64 SW13      29.92S
LANGDON        MOCLDY    75  50  41 W10       29.90R
ROLLA          FAIR      72  48  43 W8        29.89S
$$

CITY           SKY/WX    TMP DP  RH WIND       PRES   REMARKS
ABERDEEN       SUNNY     79  60  52 S10       29.91F
MOBRIDGE       CLOUDY    82  49  31 S9        29.87F
BUFFALO          N/A     79  50  36 E9        29.82F
RAPID CITY     SUNNY     81  50  33 SE10      29.88F
GLASGOW        SUNNY     85  37  18 SW15      29.72F
SIDNEY         SUNNY     83  44  25 S7        29.78F
WOLF POINT     SUNNY     85  40  20 W9        29.74F
GLENDIVE       SUNNY     85  43  22 SW8G18    29.80F
MILES CITY     SUNNY     85  40  20 SW9G17    29.79F
BAKER          MOSUNNY   82  37  20 W10G18    29.85F
$$

CITY           SKY/WX    TMP DP  RH WIND       PRES   REMARKS
BILLINGS       PTSUNNY   82  36  19 S12       29.83F
GREAT FALLS    MOSUNNY   82  34  17 W22G28    29.75F
$$





USA.gov is the U.S. government's official web portal to all federal, state and local government web resources and services.